Location: Klein M�hlingen
(51.9472°N, 11.7453°E)
Time: 19:03:57
(UTC+00:00)

Envisat - Pass Details

Date: 29 September 2021
Orbit: 764 x 766 km, 98.2° (Epoch: 20 October)

Event Time Altitude Azimuth Distance (km) Brightness Sun altitude
Rises 03:06:51 0° 26° (NNE) 3,244 7.0 -19.5°
Reaches altitude 10° 03:09:58 10° 46° (NE) 2,312 6.5 -19.0°
Maximum altitude 03:13:18 17° 87° (E) 1,847 5.9 -18.6°
Drops below altitude 10° 03:16:38 10° 129° (SE) 2,300 5.9 -18.1°
Sets 03:19:42 0° 148° (SSE) 3,220 6.4 -17.6°
